Fairbanks, AK

3:05 PM AKDT on September 25, 2016 (GMT -0800)
Fairbanks International

Weather History for PAFA - September, 2012

Change the Weather History Date:

Monday, September 24, 2012

  Actual Average Record
Temperature  
Mean Temperature 40 °F 41 °F  
Max Temperature 47 °F 50 °F 69 °F (1942)
Min Temperature 32 °F 32 °F 8 °F (1992)
Degree Days  
Heating Degree Days 25 24  
Month to date heating degree days 430 448  
Since 1 July heating degree days 828 837  
Cooling Degree Days 0 0  
Month to date cooling degree days 0 0  
Year to date cooling degree days 34 61  
Moisture  
Dew Point 31 °F    
Average Humidity 69    
Maximum Humidity 83    
Minimum Humidity 36    
Precipitation  
Precipitation T in 0.03 in 0.45 in (2005)
Month to date precipitation 0.55 0.92  
Year to date precipitation 7.76 8.49  
Snow  
Snow 0.00 in 0.10 in 0.40 in (1983)
Month to date snowfall 0.0 1.1  
Since 1 July snowfall 0.0 1.1  
Since 1 September snowfall 0.0 1.1  
Snow Depth 0.00 in    
Sea Level Pressure  
Sea Level Pressure 29.93 in    
Wind  
Wind Speed 5 mph (West)    
Max Wind Speed 10 mph    
Max Gust Speed -    
Visibility 10 miles    
Events Rain    
T = Trace of Precipitation, MM = Missing Value Source: NWS Daily Summary

Daily Weather History Graph

Daily Weather History Graph

Search for Another Location

Airport or City:

Trip Planner

Search our weather history database for the weather conditions in past years. The results will help you decide how hot, cold, wet, or windy it might be!

Date:

Astronomy

Sep. 24, 2012 Rise Set
Actual Time 7:42 AM AKDT 7:42 PM AKDT
Civil Twilight 6:53 AM AKDT 8:31 PM AKDT
Nautical Twilight 5:53 AM AKDT 9:30 PM AKDT
Astronomical Twilight 4:46 AM AKDT 10:36 PM AKDT
Moon 6:09 PM AKDT (9/24) 12:13 AM AKDT (9/24)
Length of Visible Light 13h 37m
Length of Day
12h 00m
Waxing Gibbous, 72% of the Moon is Illuminated
Sep 24
Waxing Gibbous
Sep 29
Full
Oct 7
Last Quarter
Oct 15
New
Oct 21
First Quarter

Hourly Weather History & Observations

Time (AKDT) Temp. Windchill Dew Point Humidity Pressure Visibility Wind Dir Wind Speed Gust Speed Precip Events Conditions
12:53 AM 42.1 °F 36.1 °F 36.0 °F 79% 29.82 in 10.0 mi West 10.4 mph - N/A   Overcast
1:53 AM 41.0 °F 34.7 °F 36.0 °F 82% 29.85 in 10.0 mi WSW 10.4 mph - N/A   Overcast
2:53 AM 41.0 °F 37.1 °F 35.1 °F 79% 29.88 in 10.0 mi Variable 5.8 mph - N/A   Overcast
3:53 AM 39.9 °F 36.7 °F 35.1 °F 83% 29.91 in 10.0 mi SSW 4.6 mph - N/A   Overcast
4:53 AM 39.0 °F 34.0 °F 34.0 °F 82% 29.92 in 10.0 mi WSW 6.9 mph - N/A   Overcast
5:53 AM 39.0 °F 34.0 °F 32.0 °F 76% 29.94 in 10.0 mi WSW 6.9 mph - N/A   Overcast
6:53 AM 37.0 °F 32.4 °F 30.9 °F 79% 29.95 in 10.0 mi West 5.8 mph - 0.00 in Rain Light Rain
7:53 AM 37.0 °F - 32.0 °F 82% 29.96 in 10.0 mi Calm Calm - 0.00 in   Mostly Cloudy
8:53 AM 37.0 °F 33.3 °F 30.9 °F 79% 29.97 in 10.0 mi South 4.6 mph - N/A   Mostly Cloudy
9:53 AM 37.9 °F - 33.1 °F 83% 29.98 in 10.0 mi Calm Calm - N/A   Mostly Cloudy
10:53 AM 39.0 °F - 30.0 °F 70% 29.99 in 10.0 mi Calm Calm - N/A   Mostly Cloudy
11:53 AM 39.9 °F - 28.0 °F 63% 29.99 in 10.0 mi Calm Calm - N/A   Mostly Cloudy
12:53 PM 43.0 °F - 28.9 °F 58% 29.98 in 10.0 mi Calm Calm - N/A   Mostly Cloudy
1:53 PM 44.1 °F 42.5 °F 27.0 °F 51% 29.97 in 10.0 mi NE 3.5 mph - N/A   Mostly Cloudy
2:53 PM 44.1 °F - 25.0 °F 47% 29.96 in 10.0 mi Calm Calm - N/A   Scattered Clouds
3:53 PM 44.1 °F 40.8 °F 26.1 °F 49% 29.96 in 10.0 mi North 5.8 mph - N/A   Scattered Clouds
4:53 PM 46.0 °F - 26.1 °F 46% 29.95 in 10.0 mi Calm Calm - N/A   Partly Cloudy
5:53 PM 46.0 °F - 28.0 °F 50% 29.94 in 10.0 mi Calm Calm - N/A   Partly Cloudy
6:53 PM 45.0 °F - 28.9 °F 53% 29.93 in 10.0 mi Calm Calm - N/A   Scattered Clouds
7:53 PM 39.9 °F - 30.9 °F 70% 29.92 in 10.0 mi Calm Calm - N/A   Scattered Clouds
8:53 PM 37.9 °F - 30.0 °F 73% 29.91 in 10.0 mi Calm Calm - N/A   Scattered Clouds
9:53 PM 37.0 °F - 28.9 °F 73% 29.89 in 10.0 mi Calm Calm - N/A   Scattered Clouds
10:53 PM 34.0 °F - 28.9 °F 82% 29.88 in 10.0 mi Calm Calm - N/A   Scattered Clouds
11:53 PM 36.0 °F 33.3 °F 30.0 °F 79% 29.86 in 10.0 mi NNE 3.5 mph - N/A   Scattered Clouds